Location: Hoyos del Collado
(40.3594°N, 5.2003°W)
Time: 12:52:24
(UTC+00:00)

SPOT 5 - Pass Details

Date: 18 April 2024
Orbit: 620 x 810 km, 98.1° (Epoch: 27 May)

Event Time Altitude Azimuth Distance (km) Brightness Sun altitude
Exits shadow 22:05:58 29° 243° (WSW) 1,460 4.5 -29.8°
Maximum altitude 22:07:00 31° 264° (W) 1,392 4.5 -29.9°
Drops below altitude 10° 22:11:40 10° 326° (NW) 2,377 6.4 -30.5°
Sets 22:14:15 0° 337° (NNW) 3,292 7.4 -30.8°
